Date String (YYYY-MM-DD hh:mm:ss) UTC,Instrument flags,absolute air pressure of the measurement (hPa),sample flow rate (lpm),inlet stack bypass flow (lpm),air temperature of the measurement (°C),ambient temperature measured by the external sensor (°C),aerosol sample conditioner tube jacket temperature (°C),OPC LED temperature (°C),internal box temperature (°C),relative humidity of the measurement (%),span deviation,mass concentration of particles derived from Lorenz-Mie calculation of OPC scattering (μg/m³),mass concentration of particles derived from Lorenz-Mie calculation of OPC scattering (μg/m³),mass concentration of particles derived from Lorenz-Mie calculation of OPC scattering (μg/m³)
DateTimeUTC,F1_M11,P_M11,Q1_M11,Q2_M11,T1_M11,T2_M11,T3_M11,T4_M11,T5_M11,U1_M11,ZSPAN_M11,X0_M11,X2_M11,X1_M11
2024-06-08 05:00:00,SystemResetWarning,0827.8,5.00,000.00,029.5,028.7,000.0,037.7,031.3,020.2,0000.0,0007.37,0003.06,0002.17
2024-06-08 05:01:00,SystemResetWarning,0827.8,4.99,000.00,029.6,028.9,000.0,037.8,031.3,020.1,0000.0,0007.25,0003.02,0002.17
2024-06-08 05:02:00,SystemResetWarning,0827.7,4.99,000.00,029.6,029.0,000.0,037.8,031.4,020.1,0000.0,0006.77,0003.03,0002.18
2024-06-08 05:03:00,SystemResetWarning,0827.8,4.99,000.00,029.7,029.1,000.0,037.8,031.4,020.1,0000.0,0005.98,0003.02,0002.18
2024-06-08 05:04:00,SystemResetWarning,0827.8,5.00,000.00,029.7,029.2,000.0,037.9,031.5,020.0,0000.0,0005.37,0003.02,0002.18
2024-06-08 05:05:00,SystemResetWarning,0827.8,5.01,000.00,029.8,029.2,000.0,037.9,031.6,020.0,0000.0,0005.89,0003.03,0002.19
2024-06-08 05:06:00,SystemResetWarning,0827.8,5.01,000.00,029.8,029.3,000.0,037.9,031.6,020.0,0000.0,0006.09,0003.01,0002.18
2024-06-08 05:07:00,SystemResetWarning,0827.7,5.00,000.00,029.9,029.4,000.0,037.9,031.7,020.0,0000.0,0006.16,0003.03,0002.16
2024-06-08 05:08:00,SystemResetWarning,0827.7,5.00,000.00,029.9,029.4,000.0,038.0,031.7,019.8,0000.0,0006.11,0003.01,0002.16
2024-06-08 05:09:00,SystemResetWarning,0827.7,5.00,000.00,030.0,029.5,000.0,038.0,031.8,019.8,0000.0,0007.46,0002.99,0002.16
2024-06-08 05:10:00,SystemResetWarning,0827.7,5.00,000.00,030.0,029.6,000.0,038.1,031.8,019.7,0000.0,0008.14,0003.01,0002.17
2024-06-08 05:11:00,SystemResetWarning,0827.7,4.98,000.00,030.0,028.5,000.0,038.1,031.2,019.8,0000.0,0008.17,0002.99,0002.17
2024-06-08 05:12:00,SystemResetWarning,0827.5,5.01,000.00,029.6,026.6,000.0,038.2,030.3,020.2,0000.0,0008.10,0002.96,0002.17
2024-06-08 05:13:00,SystemResetWarning,0827.5,5.01,000.00,029.4,026.6,000.0,038.1,030.2,020.5,0000.0,0008.05,0002.94,0002.17
2024-06-08 05:14:00,SystemResetWarning,0827.5,4.98,000.00,029.3,026.9,000.0,038.0,030.4,020.6,0000.0,0007.96,0002.94,0002.18
2024-06-08 05:15:00,SystemResetWarning,0827.5,4.99,000.00,029.3,027.3,000.0,037.9,030.6,020.5,0000.0,0007.89,0002.95,0002.20
2024-06-08 05:16:00,SystemResetWarning,0827.5,5.00,000.00,029.3,027.7,000.0,037.9,030.8,020.6,0000.0,0007.66,0002.94,0002.19
2024-06-08 05:17:00,SystemResetWarning,0827.6,5.01,000.00,029.4,028.0,000.0,037.8,031.0,020.5,0000.0,0007.34,0002.91,0002.18
2024-06-08 05:18:00,SystemResetWarning,0827.7,5.00,000.00,029.4,028.2,000.0,037.8,031.0,020.4,0000.0,0007.38,0002.88,0002.19
2024-06-08 05:19:00,SystemResetWarning,0827.7,5.01,000.00,029.5,028.4,000.0,037.8,031.1,020.3,0000.0,0007.89,0002.92,0002.20
2024-06-08 05:20:00,SystemResetWarning,0827.7,5.00,000.00,029.5,028.6,000.0,037.8,031.2,020.3,0000.0,0007.23,0002.90,0002.20
2024-06-08 05:21:00,SystemResetWarning,0827.8,5.00,000.00,029.6,028.8,000.0,037.8,031.3,020.1,0000.0,0006.30,0002.85,0002.19
2024-06-08 05:22:00,SystemResetWarning,0827.7,5.00,000.00,029.6,028.9,000.0,037.8,031.4,020.0,0000.0,0006.75,0002.85,0002.18
2024-06-08 05:23:00,SystemResetWarning,0827.7,5.00,000.00,029.7,029.0,000.0,037.8,031.4,020.1,0000.0,0006.70,0002.89,0002.20
2024-06-08 05:24:00,SystemResetWarning,0827.7,5.00,000.00,029.7,029.1,000.0,037.9,031.4,020.1,0000.0,0006.85,0002.91,0002.20
2024-06-08 05:25:00,SystemResetWarning,0827.7,5.00,000.00,029.8,029.2,000.0,037.9,031.5,020.0,0000.0,0006.79,0002.88,0002.19
2024-06-08 05:26:00,SystemResetWarning,0827.7,5.00,000.00,029.8,029.3,000.0,037.9,031.6,019.9,0000.0,0006.57,0002.81,0002.19
2024-06-08 05:27:00,SystemResetWarning,0827.7,5.01,000.00,029.9,029.3,000.0,038.0,031.6,019.7,0000.0,0006.52,0002.77,0002.20
2024-06-08 05:28:00,SystemResetWarning,0827.7,5.00,000.00,029.9,029.4,000.0,038.0,031.6,019.8,0000.0,0006.51,0002.78,0002.20
2024-06-08 05:29:00,SystemResetWarning,0827.8,5.01,000.00,029.9,029.4,000.0,038.0,031.7,019.7,0000.0,0006.31,0002.73,0002.20
2024-06-08 05:30:00,SystemResetWarning,0827.8,5.01,000.00,030.0,029.5,000.0,038.1,031.8,019.6,0000.0,0005.57,0002.67,0002.18
2024-06-08 05:31:00,SystemResetWarning,0827.8,5.00,000.00,030.0,029.5,000.0,038.1,031.8,019.6,0000.0,0005.57,0002.68,0002.18
2024-06-08 05:32:00,SystemResetWarning,0827.8,5.00,000.00,030.1,029.6,000.0,038.1,031.9,019.6,0000.0,0005.53,0002.75,0002.19
2024-06-08 05:33:00,SystemResetWarning,0827.9,5.00,000.00,030.1,029.6,000.0,038.2,031.9,019.6,0000.0,0004.90,0002.80,0002.20
2024-06-08 05:34:00,SystemResetWarning,0828.0,4.99,000.00,030.1,029.4,000.0,038.2,031.7,019.5,0000.0,0006.27,0002.79,0002.20
2024-06-08 05:35:00,SystemResetWarning,0827.8,5.00,000.00,029.9,027.2,000.0,038.3,030.7,019.8,0000.0,0006.32,0002.78,0002.20
2024-06-08 05:36:00,SystemResetWarning,0827.8,5.02,000.00,029.5,026.4,000.0,038.3,030.3,020.3,0000.0,0006.38,0002.83,0002.22
2024-06-08 05:37:00,SystemResetWarning,0827.8,5.00,000.00,029.4,026.8,000.0,038.2,030.4,020.5,0000.0,0006.67,0002.93,0002.22
2024-06-08 05:38:00,SystemResetWarning,0827.8,5.00,000.00,029.3,027.1,000.0,038.0,030.6,020.5,0000.0,0007.04,0003.03,0002.24
2024-06-08 05:39:00,SystemResetWarning,0827.9,4.99,000.00,029.4,027.5,000.0,038.0,030.8,020.5,0000.0,0007.66,0003.11,0002.26
2024-06-08 05:40:00,SystemResetWarning,0827.9,5.00,000.00,029.4,027.8,000.0,037.9,030.9,020.5,0000.0,0008.18,0003.14,0002.27
2024-06-08 05:41:00,SystemResetWarning,0827.9,5.00,000.00,029.5,028.1,000.0,037.9,031.0,020.4,0000.0,0008.39,0003.18,0002.30
2024-06-08 05:42:00,SystemResetWarning,0828.1,4.99,000.00,029.5,028.3,000.0,037.9,031.1,020.4,0000.0,0008.33,0003.16,0002.31
2024-06-08 05:43:00,SystemResetWarning,0828.1,5.00,000.00,029.5,028.5,000.0,037.9,031.2,020.3,0000.0,0008.30,0003.13,0002.30
2024-06-08 05:44:00,SystemResetWarning,0828.1,4.99,000.00,029.6,028.7,000.0,037.9,031.3,020.3,0000.0,0008.14,0003.10,0002.32
2024-06-08 05:45:00,SystemResetWarning,0828.1,5.00,000.00,029.6,028.8,000.0,037.9,031.4,020.2,0000.0,0007.16,0003.11,0002.33
2024-06-08 05:46:00,SystemResetWarning,0828.1,5.00,000.00,029.7,029.0,000.0,037.9,031.4,020.1,0000.0,0006.99,0003.09,0002.33
2024-06-08 05:47:00,SystemResetWarning,0828.1,5.00,000.00,029.7,029.1,000.0,037.9,031.5,020.1,0000.0,0006.92,0003.08,0002.35
2024-06-08 05:48:00,SystemResetWarning,0828.2,5.01,000.00,029.8,029.2,000.0,037.9,031.5,020.0,0000.0,0006.80,0003.04,0002.37
2024-06-08 05:49:00,SystemResetWarning,0828.1,5.00,000.00,029.8,029.2,000.0,038.0,031.6,019.9,0000.0,0006.48,0002.95,0002.35
2024-06-08 05:50:00,SystemResetWarning,0828.1,5.01,000.00,029.9,029.3,000.0,038.0,031.7,019.8,0000.0,0005.52,0002.87,0002.36
2024-06-08 05:51:00,SystemResetWarning,0828.1,5.00,000.00,029.9,029.4,000.0,038.0,031.7,019.7,0000.0,0004.74,0002.87,0002.36
2024-06-08 05:52:00,SystemResetWarning,0828.2,5.00,000.00,030.0,029.5,000.0,038.1,031.7,019.5,0000.0,0004.29,0002.86,0002.36
2024-06-08 05:53:00,SystemResetWarning,0828.2,5.00,000.00,030.0,029.5,000.0,038.1,031.8,019.5,0000.0,0004.39,0002.91,0002.37
2024-06-08 05:54:00,SystemResetWarning,0828.2,5.00,000.00,030.1,029.6,000.0,038.1,031.8,019.5,0000.0,0004.31,0002.93,0002.37
2024-06-08 05:55:00,SystemResetWarning,0828.2,4.99,000.00,030.1,029.6,000.0,038.2,031.9,019.5,0000.0,0004.41,0002.96,0002.36
2024-06-08 05:56:00,SystemResetWarning,0828.2,5.00,000.00,030.1,029.7,000.0,038.2,031.9,019.5,0000.0,0005.53,0003.00,0002.35
2024-06-08 05:57:00,SystemResetWarning,0828.3,4.99,000.00,030.2,029.7,000.0,038.2,031.9,019.7,0000.0,0006.63,0003.06,0002.35
2024-06-08 05:58:00,SystemResetWarning,0828.2,5.00,000.00,030.1,028.4,000.0,038.3,031.3,020.0,0000.0,0006.81,0003.08,0002.34
2024-06-08 05:59:00,SystemResetWarning,0828.1,5.00,000.00,029.7,026.5,000.0,038.3,030.4,020.8,0000.0,0007.29,0003.09,0002.33
